[[{"header":{"parameterUnit":"m.s-1","parameterCategory":1,"la1":30.2991,"la2":30.254,"lo1":-89.0895,"lo2":-89.0444,"dy":0.0017,"dx":0.0017,"nx":28,"ny":28,"refTime":"2025-01-24T03:00:00:Z","depth":0,"parameterNumber":2,"parameterNumberName":"U-component_of_WINDS"},"data":[0,0,0,0,0,0,0,0,0,0,0,0,0,0,0,0,0,0,0,0,0,0,0,0,0,0,0,0,0,0,0,0,0,0,0,0,0,0,0,0,0,0,0,0,0,0,0,0,0,0,0,0,0,0,0,0,0,0,0.1321,0.1321,0,0.1321,0.1321,0.1321,0.1341,0.1342,0.1342,0.1343,0.1341,0.1341,0.134,0,0,0,0,0,0,0,0,0,0,0,0,0,0.1339,0.1339,0.1321,0.1321,0.1321,0.1321,0.1321,0.1321,0.1341,0.1342,0.1343,0.1343,0.1342,0.1341,0.134,0,0,0,0,0,0,0,0,0,0,0,0,0,0.1334,0.1339,0.1321,0.1331,0.1332,0.1321,0.1321,0.1321,0.1341,0.1342,0.1343,0.1344,0.1342,0.1341,0.134,0.1319,0,0,0.1338,0.1337,0,0,0,0,0,0,0,0,0.1335,0.1334,0.133,0.133,0.1332,0.1332,0.1327,0.132,0.1341,0.1338,0.1343,0.1344,0.1338,0.1337,0.1335,0.1319,0.1319,0.1338,0.1337,0.1337,0.1337,0,0,0,0,0,0,0,0.1335,0.1334,0.1321,0.133,0.1331,0.1336,0.1336,0.1326,0.1333,0.1338,0.1339,0.1339,0.1338,0.1336,0.1335,0.1319,0.1338,0.1337,0.1336,0.1336,0.1288,0.1287,0,0,0,0,0,0,0.1334,0.1334,0.1321,0.1321,0.1335,0.1335,0.1335,0.1331,0.1333,0.1334,0.1339,0.134,0.1337,0.1336,0.1335,0.1312,0.1337,0.1336,0.1336,0.1289,0.1288,0.1287,0,0,0,0,0,0,0.1334,0.1333,0.1321,0.1328,0.1327,0.1334,0.1329,0.1331,0.1328,0.1334,0.1335,0.1335,0.1338,0.1337,0.1324,0.1312,0.1336,0.1335,0.129,0.1289,0.1287,0.1265,0,0,0,0,0,0,0.1335,0.1333,0.1324,0.1328,0.1326,0.1309,0.1328,0.133,0.1327,0.1329,0.1331,0.1332,0.1338,0.1325,0.1323,0.1312,0.1334,0.1291,0.1289,0.1288,0.1266,0.1263,0.126,0,0,0,0,0,0.1335,0.1317,0.1324,0.1322,0.1316,0.1308,0.1307,0.1316,0.1326,0.1318,0.1322,0.1332,0.1314,0.1323,0.1321,0.131,0.1291,0.129,0.1288,0.1268,0.1264,0.126,0,0,0,0,0,0,0.131,0.1317,0.1325,0.1307,0.1307,0.1312,0.1301,0.131,0.1307,0.1309,0.1319,0.1319,0.1305,0.1306,0.1316,0.1291,0.1305,0.1303,0.129,0.1286,0.1283,0.1283,0.1334,0,0,0,0,0,0.1303,0.1296,0.1303,0.1286,0.1286,0.1294,0.1291,0.1297,0.1297,0.1297,0.13,0.13,0.1295,0.1291,0.1286,0.1267,0.1269,0.1259,0.1255,0.1253,0.125,0.1243,0.1239,0.1281,0.1281,0.1281,0,0,0.1287,0.129,0.1285,0.1281,0.1282,0.1275,0.1293,0.1284,0.128,0.1296,0.1284,0.1287,0.1287,0.1272,0.1265,0.1272,0.1239,0.125,0.1248,0.1247,0.1241,0.1237,0.1233,0.128,0.128,0.128,0,0,0.1255,0.1256,0.1244,0.1245,0.1246,0.1252,0.125,0.1253,0.1256,0.1245,0.1258,0.1252,0.1242,0.1243,0.1242,0.1214,0.1223,0.1212,0.1194,0.1187,0.1183,0.1181,0.1171,0.1168,0.121,0.121,0.121,0,0.1235,0.1225,0.1236,0.1227,0.1226,0.1242,0.123,0.123,0.123,0.1229,0.1237,0.1227,0.1229,0.1215,0.1208,0.1207,0.1204,0.1211,0.1183,0.118,0.1178,0.1169,0.1166,0.1208,0.1209,0.1209,0.1209,0,0.12,0.1194,0.1183,0.1184,0.1182,0.1171,0.1182,0.1178,0.1186,0.1192,0.1182,0.1184,0.1181,0.1179,0.1186,0.1167,0.1171,0.1181,0.1195,0.1172,0.1165,0.1161,0.1207,0.1207,0.1207,0.1208,0,0,0.1149,0.116,0.1155,0.1157,0.1162,0.1157,0.1148,0.1147,0.1144,0.1144,0.1138,0.1131,0.1141,0.114,0.1148,0.1141,0.1121,0.1152,0.1152,0.1147,0.1102,0.1094,0.109,0.1127,0.1127,0.1126,0.1102,0,0.1119,0.1104,0.1116,0.11,0.1094,0.1111,0.1104,0.1107,0.1112,0.1109,0.1115,0.1111,0.1124,0.1124,0.1118,0.1124,0.1112,0.1126,0.1122,0.1121,0.1121,0.1086,0.1077,0.1054,0.1099,0.1098,0.1098,0,0.108,0.1081,0.1064,0.1073,0.1071,0.1064,0.1065,0.1061,0.1066,0.107,0.1071,0.1081,0.1074,0.1089,0.1081,0.109,0.109,0.1093,0.1092,0.1092,0.1108,0.1084,0.1046,0.1043,0.1093,0.1093,0.1094,0,0.1046,0.1042,0.1032,0.1033,0.1042,0.1038,0.1041,0.1046,0.1046,0.1047,0.1047,0.1047,0.1046,0.1047,0.1057,0.1067,0.1048,0.1063,0.1052,0.1052,0.1046,0.1046,0.1008,0.1046,0.1046,0.1046,0.1046,0,0.101,0.0999,0.1017,0.1011,0.1001,0.1015,0.1004,0.101,0.1015,0.1011,0.1025,0.1021,0.1036,0.1034,0.1042,0.1035,0.1034,0.1039,0.1041,0.1037,0.1037,0.1036,0.1038,0.1045,0.1046,0.1046,0.1046,0,0.0969,0.098,0.0971,0.0982,0.0984,0.0976,0.0986,0.0981,0.0989,0.0984,0.0984,0.0996,0.0995,0.1006,0.1006,0.1012,0.1001,0.1006,0.0999,0.1001,0.099,0.0991,0.0949,0.0945,0.0986,0.0985,0.0985,0,0.0945,0.0937,0.0948,0.0947,0.095,0.0948,0.0948,0.0963,0.0962,0.0968,0.0963,0.0964,0.0964,0.0962,0.0971,0.0972,0.0977,0.0963,0.0977,0.0975,0.0978,0.0978,0.0978,0.0959,0.0959,0.0958,0.0958,0,0.0901,0.0908,0.0908,0.0911,0.0911,0.0913,0.0917,0.0915,0.0931,0.093,0.0929,0.093,0.0932,0.0933,0.0936,0.0941,0.0952,0.0954,0.0951,0.0947,0.0944,0.0946,0.0991,0.0954,0.0955,0.0955,0.0955,0.0955,0.0868,0.0863,0.0871,0.0871,0.0876,0.088,0.0877,0.0885,0.0885,0.0888,0.0897,0.0896,0.0903,0.0909,0.0913,0.0912,0.092,0.0916,0.0915,0.0914,0.0912,0.0945,0.0913,0.0913,0.0913,0.0913,0.0913,0,0.0826,0.0833,0.0833,0.0838,0.0839,0.0852,0.0857,0.0856,0.0855,0.0861,0.0863,0.0863,0.0865,0.0875,0.0878,0.0876,0.0882,0.0876,0.0876,0.0878,0.0905,0.0907,0.0872,0.0872,0.0872,0.0872,0.0872,0.0872,0.0804,0.0798,0.0806,0.0802,0.0809,0.0808,0.0811,0.0815,0.082,0.082,0.0822,0.083,0.0838,0.0842,0.0845,0.0848,0.0849,0.0842,0.0847,0.0871,0.0875,0.0879,0.0881,0.0841,0.0841,0.082,0.0819,0.0819]},{"header":{"parameterUnit":"m.s-1","parameterCategory":1,"la1":30.2991,"la2":30.254,"lo1":-89.0895,"lo2":-89.0444,"dy":0.0017,"dx":0.0017,"nx":28,"ny":28,"refTime":"2025-01-24T03:00:00:Z","depth":0,"parameterNumber":3,"parameterNumberName":"V-component_of_WINDS"},"data":[0,0,0,0,0,0,0,0,0,0,0,0,0,0,0,0,0,0,0,0,0,0,0,0,0,0,0,0,0,0,0,0,0,0,0,0,0,0,0,0,0,0,0,0,0,0,0,0,0,0,0,0,0,0,0,0,0,0,-4.4695,-4.4696,0,-4.4845,-4.4847,-4.4848,-4.4793,-4.4789,-4.4786,-4.4782,-4.4933,-4.494,-4.4947,0,0,0,0,0,0,0,0,0,0,0,0,0,-4.4355,-4.4362,-4.4694,-4.4696,-4.4698,-4.4845,-4.4847,-4.4849,-4.4793,-4.4789,-4.4785,-4.4781,-4.4931,-4.4939,-4.4948,0,0,0,0,0,0,0,0,0,0,0,0,0,-4.4504,-4.4364,-4.4694,-4.4688,-4.4689,-4.4844,-4.4847,-4.4849,-4.4794,-4.4789,-4.4784,-4.4779,-4.4928,-4.4938,-4.4949,-4.5117,0,0,-4.4982,-4.4986,0,0,0,0,0,0,0,0,-4.4495,-4.4516,-4.4687,-4.4689,-4.469,-4.4795,-4.4782,-4.4939,-4.4795,-4.4754,-4.4782,-4.4776,-4.4891,-4.4904,-4.4944,-4.5125,-4.5131,-4.4983,-4.4989,-4.4994,-4.4997,0,0,0,0,0,0,0,-4.4485,-4.4509,-4.4754,-4.469,-4.4692,-4.4677,-4.4692,-4.4812,-4.4849,-4.4757,-4.4754,-4.4772,-4.4891,-4.4933,-4.4947,-4.5133,-4.4982,-4.4992,-4.4999,-4.5003,-4.5458,-4.5464,0,0,0,0,0,0,-4.4475,-4.4501,-4.4749,-4.4758,-4.4578,-4.4687,-4.4704,-4.4766,-4.4848,-4.4855,-4.4777,-4.4769,-4.4917,-4.4934,-4.4952,-4.5154,-4.4994,-4.5004,-4.501,-4.5453,-4.546,-4.5466,0,0,0,0,0,0,-4.4468,-4.4497,-4.4743,-4.4629,-4.4659,-4.4698,-4.4768,-4.4772,-4.4815,-4.4862,-4.4868,-4.4814,-4.4914,-4.4937,-4.5077,-4.5158,-4.5009,-4.5018,-4.5446,-4.5455,-4.5463,-4.556,0,0,0,0,0,0,-4.4458,-4.4495,-4.4561,-4.4631,-4.4665,-4.4867,-4.4774,-4.4779,-4.4834,-4.4826,-4.4899,-4.4906,-4.4912,-4.5061,-4.5087,-4.517,-4.5027,-4.5439,-4.545,-4.546,-4.5549,-4.557,-4.5588,0,0,0,0,0,-4.4446,-4.4582,-4.4564,-4.4595,-4.4748,-4.4872,-4.4891,-4.4897,-4.4841,-4.4906,-4.4937,-4.4904,-4.5145,-4.5076,-4.5105,-4.5192,-4.5434,-4.5447,-4.5459,-4.554,-4.5566,-4.5588,0,0,0,0,0,0,-4.4519,-4.4591,-4.4572,-4.4735,-4.4798,-4.4862,-4.4945,-4.4924,-4.5003,-4.4992,-4.4994,-4.5011,-4.5155,-4.5187,-4.5109,-4.5359,-4.5281,-4.53,-4.5333,-4.5357,-4.5377,-4.5365,-4.5036,0,0,0,0,0,-4.4554,-4.465,-4.4707,-4.4844,-4.4877,-4.4906,-4.496,-4.4958,-4.5023,-4.5049,-4.509,-4.5153,-4.5243,-4.5302,-4.5387,-4.5554,-4.5568,-4.5628,-4.5648,-4.5663,-4.568,-4.5769,-4.5796,-4.5507,-4.5507,-4.5507,0,0,-4.4628,-4.4678,-4.4739,-4.486,-4.4909,-4.5006,-4.4929,-4.5035,-4.5107,-4.5065,-4.52,-4.5232,-4.5302,-4.5456,-4.5525,-4.5487,-4.5763,-4.568,-4.5692,-4.57,-4.5785,-4.5812,-4.5836,-4.5516,-4.5514,-4.5513,0,0,-4.4811,-4.486,-4.4979,-4.503,-4.5105,-4.5123,-4.5151,-4.5219,-4.5239,-4.5375,-4.5345,-4.5429,-4.5585,-4.5636,-4.5682,-4.5884,-4.5856,-4.5911,-4.6013,-4.61,-4.6123,-4.6143,-4.6214,-4.6239,-4.5928,-4.5928,-4.5928,0,-4.4892,-4.5039,-4.5043,-4.5153,-4.5206,-4.5173,-4.5294,-4.5342,-4.544,-4.5478,-4.5434,-4.5627,-4.5672,-4.5837,-4.5886,-4.5925,-4.5957,-4.5903,-4.6119,-4.614,-4.6158,-4.6226,-4.6253,-4.5934,-4.5933,-4.5933,-4.5932,0,-4.5135,-4.5237,-4.5325,-4.5422,-4.5485,-4.5599,-4.5619,-4.5683,-4.5675,-4.5698,-4.5835,-4.5888,-4.5983,-4.6022,-4.6016,-4.6186,-4.616,-4.6118,-4.6039,-4.6192,-4.6255,-4.6281,-4.5943,-4.5941,-4.5939,-4.5937,0,0,-4.5369,-4.5466,-4.5498,-4.5541,-4.5621,-4.5699,-4.5811,-4.5905,-4.5959,-4.6028,-4.6121,-4.6253,-4.6214,-4.6267,-4.6266,-4.6342,-4.6497,-4.6291,-4.6292,-4.6326,-4.6686,-4.6716,-4.6746,-4.6479,-4.6484,-4.6488,-4.6679,0,-4.5558,-4.5756,-4.5762,-4.5942,-4.6036,-4.6005,-4.6103,-4.6161,-4.6185,-4.6266,-4.6291,-4.6385,-4.6328,-4.6359,-4.6433,-4.6463,-4.6569,-4.6449,-4.6564,-4.6568,-4.6547,-4.678,-4.6812,-4.6991,-4.6704,-4.6709,-4.6712,0,-4.5805,-4.5882,-4.6072,-4.6138,-4.6177,-4.6265,-4.6351,-4.643,-4.6495,-4.6506,-4.6565,-4.6552,-4.6665,-4.6583,-4.6737,-4.6655,-4.6702,-4.6724,-4.6731,-4.6741,-4.6649,-4.6795,-4.7048,-4.7074,-4.6751,-4.6748,-4.6745,0,-4.5955,-4.6107,-4.624,-4.6278,-4.6358,-4.642,-4.6455,-4.6516,-4.6571,-4.6646,-4.6682,-4.6768,-4.6815,-4.6882,-4.6892,-4.6832,-4.7047,-4.6966,-4.7058,-4.7058,-4.7104,-4.7101,-4.7367,-4.7136,-4.7136,-4.7135,-4.7135,0,-4.6165,-4.6283,-4.6308,-4.639,-4.652,-4.6525,-4.6653,-4.6684,-4.6737,-4.6823,-4.6802,-4.6883,-4.6892,-4.6975,-4.6984,-4.7109,-4.7131,-4.7142,-4.7143,-4.7144,-4.7142,-4.7174,-4.7162,-4.7143,-4.7141,-4.714,-4.7138,0,-4.6355,-4.6378,-4.652,-4.6584,-4.6603,-4.6696,-4.6749,-4.6827,-4.6848,-4.6957,-4.6982,-4.7015,-4.7111,-4.7129,-4.7242,-4.7248,-4.7397,-4.7386,-4.7376,-4.7374,-4.7465,-4.7456,-4.776,-4.78,-4.7544,-4.7547,-4.7549,0,-4.6488,-4.6577,-4.6651,-4.6707,-4.6747,-4.6838,-4.6895,-4.6903,-4.6962,-4.7043,-4.711,-4.7204,-4.728,-4.7436,-4.7468,-4.7555,-4.7544,-4.7645,-4.7557,-4.7555,-4.7545,-4.7539,-4.7547,-4.7662,-4.7665,-4.7667,-4.7669,0,-4.672,-4.6726,-4.681,-4.6897,-4.6966,-4.7035,-4.71,-4.7147,-4.7163,-4.7231,-4.733,-4.7389,-4.7505,-4.7598,-4.7684,-4.7719,-4.7697,-4.7696,-4.7722,-4.7723,-4.7714,-4.7719,-4.7421,-4.7689,-4.7687,-4.7686,-4.7684,-4.7684,-4.6885,-4.6962,-4.7026,-4.7119,-4.7169,-4.723,-4.7306,-4.7336,-4.7419,-4.7515,-4.7514,-4.7622,-4.7683,-4.7796,-4.7837,-4.792,-4.7888,-4.7925,-4.7935,-4.7944,-4.7952,-4.7701,-4.7936,-4.7935,-4.7935,-4.7934,-4.7934,0,-4.7115,-4.7155,-4.724,-4.7332,-4.7405,-4.7379,-4.7449,-4.7511,-4.7607,-4.7667,-4.7742,-4.7854,-4.7945,-4.7985,-4.8073,-4.8132,-4.8124,-4.8155,-4.815,-4.8158,-4.7976,-4.7945,-4.816,-4.816,-4.816,-4.816,-4.816,-4.816,-4.7244,-4.7373,-4.7387,-4.754,-4.7578,-4.7685,-4.7727,-4.7783,-4.783,-4.7957,-4.8033,-4.8058,-4.811,-4.8201,-4.8282,-4.8291,-4.8324,-4.836,-4.8365,-4.8194,-4.8171,-4.8149,-4.812,-4.8367,-4.8368,-4.8539,-4.8541,-4.8542]}]]